Change the Weather History Date:

Sunday, October 12, 2014

  Actual Average Record
Temperature  
Mean Temperature 50 °F -  
Max Temperature 51 °F 46 °F 60 °F (2000)
Min Temperature 48 °F 38 °F 26 °F (1997)
Degree Days  
Heating Degree Days 16    
Moisture  
Dew Point 45 °F    
Average Humidity 84    
Maximum Humidity 93    
Minimum Humidity 71    
Precipitation  
Precipitation 0.00 in - - ()
Sea Level Pressure  
Sea Level Pressure 29.69 in    
Wind  
Wind Speed 4 mph (ESE)    
Max Wind Speed 14 mph    
Max Gust Speed 25 mph    
Visibility 9 miles    
Events Fog , Rain    
Averages and records for this station are not official NWS values.
T = Trace of Precipitation, MM = Missing Value Source: NWS Daily Summary

Daily Weather History Graph

Daily Weather History Graph

Search for Another Location

Airport or City:

Trip Planner

Search our weather history database for the weather conditions in past years. The results will help you decide how hot, cold, wet, or windy it might be!

Date:

Astronomy

Oct. 12, 2014 Rise Set
Actual Time 7:18 AM AKDT 5:56 PM AKDT
Civil Twilight 6:40 AM AKDT 6:34 PM AKDT
Nautical Twilight 5:56 AM AKDT 7:18 PM AKDT
Astronomical Twilight 5:11 AM AKDT 8:03 PM AKDT
Moon 8:41 PM AKDT (10/12) 12:26 PM AKDT (10/12)
Length of Visible Light 11h 54m
Length of Day
10h 38m
Waning Gibbous, 78% of the Moon is Illuminated
Oct 12
Waning Gibbous
Oct 15
Last Quarter
Oct 23
New
Oct 30
First Quarter
Nov 6
Full

Hourly Weather History & Observations

Time (AKDT) Temp. Dew Point Humidity Pressure Visibility Wind Dir Wind Speed Gust Speed Precip Events Conditions
1:01 AM 48.2 °F 46.4 °F 93% 29.85 in 10.0 mi West 3.5 mph - N/A   Overcast
2:00 AM 48.2 °F 46.4 °F 93% 29.86 in 10.0 mi SE 3.5 mph - N/A   Overcast
2:50 AM 48.2 °F 46.4 °F 93% 29.85 in 10.0 mi Calm Calm - N/A   Overcast
3:12 AM 48.2 °F 46.4 °F 93% 29.84 in 10.0 mi Calm Calm - N/A   Overcast
3:51 AM 48.2 °F 46.4 °F 93% 29.83 in 10.0 mi Calm Calm - N/A   Overcast
5:55 AM 48.2 °F 46.4 °F 93% 29.80 in 10.0 mi Calm Calm - N/A   Overcast
6:00 AM 48.2 °F 46.4 °F 93% 29.79 in 10.0 mi West 3.5 mph - N/A Rain Light Rain
6:55 AM 48.2 °F 46.4 °F 93% 29.78 in 10.0 mi ESE 3.5 mph - N/A Fog , Rain Light Rain
7:55 AM 51.8 °F 44.6 °F 76% 29.75 in 10.0 mi East 3.5 mph - N/A Fog , Rain Light Rain Showers
8:55 AM 51.8 °F 44.6 °F 76% 29.73 in 10.0 mi East 3.5 mph - N/A Rain Light Rain
9:55 AM 51.8 °F 44.6 °F 76% 29.70 in 10.0 mi East 4.6 mph - N/A Rain Light Rain Showers
10:55 AM 51.8 °F 46.4 °F 82% 29.68 in 10.0 mi ESE 5.8 mph - N/A Rain Light Rain Showers
11:55 AM 51.8 °F 44.6 °F 76% 29.65 in 10.0 mi East 6.9 mph - N/A Rain Light Rain
12:55 PM 51.8 °F 44.6 °F 76% 29.62 in 10.0 mi East 8.1 mph 17.3 mph N/A Rain Light Rain Showers
1:55 PM 51.8 °F 44.6 °F 76% 29.58 in 7.0 mi East 4.6 mph - N/A Rain Light Rain Showers
2:54 PM 50.0 °F 44.6 °F 82% 29.56 in 7.0 mi East 8.1 mph - N/A Rain Rain
3:54 PM 51.8 °F 42.8 °F 71% 29.56 in 7.0 mi East 13.8 mph 25.3 mph N/A Rain Light Rain Showers
4:54 PM 50.0 °F 44.6 °F 82% 29.56 in 7.0 mi East 6.9 mph - N/A Rain Light Rain Showers
5:54 PM 51.8 °F 44.6 °F 76% 29.56 in 10.0 mi Calm Calm - N/A Rain Light Rain Showers
6:54 PM 50.0 °F 44.6 °F 82% 29.56 in 5.0 mi SSE 3.5 mph - N/A Rain Light Rain Showers
7:54 PM 48.2 °F 46.4 °F 93% 29.56 in 7.0 mi SSE 4.6 mph - N/A Rain Light Rain
8:54 PM 51.8 °F 44.6 °F 76% 29.57 in 7.0 mi East 3.5 mph - N/A Rain Light Rain
9:54 PM 48.2 °F 46.4 °F 93% 29.59 in 7.0 mi WNW 3.5 mph - N/A Rain Light Rain